KB2UHF-8 Weather Reports


time (UTC)temp
F
wind
direction
speed
knots
gust
knots
rain 1hr
in
rain 24hr
in
rain mn
in
humidity
%
barometer
mb
20260504223516 64 270 7.0 13.9 0.00 0.00 0.00 33 999.1
20260504222516 64 270 11.3 20.0 0.00 0.00 0.00 32 999.1
20260504221516 65 270 7.8 16.5 0.00 0.00 0.00 32 999.0
20260504220516 66 270 12.2 23.5 0.00 0.00 0.00 32 998.8
20260504215516 67 293 9.6 17.4 0.00 0.00 0.00 31 998.6
20260504214536 68 293 10.4 18.2 0.00 0.00 0.00 30 998.5
20260504213516 69 270 7.8 20.0 0.00 0.00 0.00 32 998.2
20260504212516 69 293 9.6 19.1 0.00 0.00 0.00 34 998.0
20260504211536 70 293 8.7 18.2 0.00 0.00 0.00 34 998.1
20260504210516 70 293 10.4 21.7 0.00 0.00 0.00 37 997.9
20260504205516 71 270 8.7 21.7 0.00 0.00 0.00 34 997.9
20260504204516 71 315 8.7 16.5 0.00 0.00 0.00 39 997.8
20260504203516 71 270 9.6 19.1 0.00 0.00 0.00 37 997.8
20260504202516 72 293 10.4 21.7 0.00 0.00 0.00 36 997.7
20260504201516 73 293 8.7 17.4 0.00 0.00 0.00 40 997.6
20260504200516 73 293 8.7 17.4 0.00 0.00 0.00 38 997.4
20260504195516 73 270 11.3 21.7 0.00 0.00 0.00 37 997.5
20260504194516 73 270 12.2 25.2 0.00 0.00 0.00 36 997.2
20260504193516 74 293 10.4 22.6 0.00 0.00 0.00 40 997.4
20260504192516 74 270 9.6 19.1 0.00 0.00 0.00 39 997.4
20260504191538 74 248 8.7 13.9 0.00 0.00 0.00 39 997.4
20260504190516 73 270 8.7 17.4 0.00 0.00 0.00 38 997.4
20260504185516 73 248 10.4 22.6 0.00 0.00 0.00 37 997.3
20260504184536 73 270 13.9 25.2 0.00 0.00 0.00 36 997.4
20260504183516 74 248 12.2 22.6 0.00 0.00 0.00 35 997.5
20260504182516 74 270 14.8 27.8 0.00 0.00 0.00 36 997.3
20260504181516 74 270 13.9 24.3 0.00 0.00 0.00 36 997.4
20260504180516 74 248 14.8 27.8 0.00 0.00 0.00 36 997.2
20260504175556 74 248 11.3 21.7 0.00 0.00 0.00 35 997.2
20260504174536 75 270 9.6 20.0 0.00 0.00 0.00 35 997.3
20260504173516 74 248 12.2 21.7 0.00 0.00 0.00 34 997.3
20260504172516 74 248 11.3 22.6 0.00 0.00 0.00 36 997.6
20260504171516 74 248 8.7 18.2 0.00 0.00 0.00 35 997.7
20260504170516 74 225 9.6 20.9 0.00 0.00 0.00 37 997.7
20260504150516 68 225 11.3 26.1 0.00 0.00 0.00 42 998.5
20260504140556 63 225 7.0 13.9 0.00 0.00 0.00 46 999.2
20260504130516 56 225 4.3 9.6 0.00 0.00 0.00 55 999.8
20260504110536 50 225 2.6 7.0 0.00 0.00 0.00 60 1000.5
20260504100515 50 225 4.3 10.4 0.00 0.00 0.00 60 1001.3
20260504081515 50 225 1.7 3.5 0.00 0.00 0.00 60 1002.3
20260504080517 50 225 1.7 5.2 0.00 0.00 0.00 60 1002.4
20260504050517 55 248 1.7 3.5 0.00 0.00 0.00 51 1004.6
20260504045516 55 248 2.6 3.5 0.00 0.00 0.00 51 1004.6
20260504044515 55 225 1.7 2.6 0.00 0.00 0.00 50 1004.7
20260504043516 56 248 2.6 3.5 0.00 0.00 0.00 49 1004.7
20260504042516 57 248 1.7 2.6 0.00 0.00 0.00 48 1004.7
20260504041536 58 248 2.6 4.3 0.00 0.00 0.00 46 1005.0
20260504040516 58 248 2.6 6.1 0.00 0.00 0.00 46 1005.1
20260504035515 59 248 1.7 2.6 0.00 0.00 0.00 45 1005.2
20260504034516 59 270 1.7 3.5 0.00 0.00 0.00 45 1005.4
20260504033515 58 270 1.7 2.6 0.00 0.00 0.00 46 1005.3
20260504032515 58 270 1.7 2.6 0.00 0.00 0.00 46 1005.4
20260504031515 58 270 1.7 2.6 0.00 0.00 0.00 46 1005.5
20260504030515 59 270 1.7 2.6 0.00 0.00 0.00 45 1005.5
20260504025515 59 270 1.7 3.5 0.00 0.00 0.00 44 1005.5
20260504024536 60 270 1.7 3.5 0.00 0.00 0.00 44 1005.6
20260504023516 60 270 1.7 2.6 0.00 0.00 0.00 43 1005.4
20260504022515 61 270 1.7 5.2 0.00 0.00 0.00 43 1005.3
20260504021516 62 270 1.7 3.5 0.00 0.00 0.00 40 1005.3
20260504020535 62 248 1.7 2.6 0.00 0.00 0.00 40 1005.2
20260504015515 62 248 1.7 5.2 0.00 0.00 0.00 40 1005.2
20260504014516 62 270 0.9 2.6 0.00 0.00 0.00 40 1005.0
20260504013535 63 0.0 1.7 0.00 0.00 0.00 39 1004.9
20260504012515 63 270 0.9 2.6 0.00 0.00 0.00 39 1004.9
20260504011515 64 270 1.7 6.1 0.00 0.00 0.00 38 1004.8
20260504010515 65 270 1.7 5.2 0.00 0.00 0.00 38 1004.8
20260504005555 66 270 2.6 5.2 0.00 0.00 0.00 37 1004.8
20260504004515 67 270 3.5 7.0 0.00 0.00 0.00 34 1004.8
20260504003515 68 293 4.3 10.4 0.00 0.00 0.00 35 1005.1
20260504002515 69 293 2.6 5.2 0.00 0.00 0.00 36 1004.9
20260504001515 69 315 3.5 7.0 0.00 0.00 0.00 36 1004.9
20260504000515 69 315 3.5 9.6 0.00 0.00 0.00 35 1005.0
20260503235515 69 293 5.2 9.6 0.00 0.00 0.00 35 1004.8
20260503234515 70 315 5.2 10.4 0.00 0.00 0.00 33 1004.7
20260503233555 70 293 4.3 11.3 0.00 0.00 0.00 31 1004.7
20260503232515 70 315 6.1 11.3 0.00 0.00 0.00 32 1004.6
20260503231617 70 315 5.2 10.4 0.00 0.00 0.00 33 1004.6
20260503230557 71 293 6.1 10.4 0.00 0.00 0.00 32 1004.6
20260503225515 71 315 4.3 10.4 0.00 0.00 0.00 33 1004.5
20260503224517 71 315 7.8 12.2 0.00 0.00 0.00 34 1004.4